Oklahoma City, OK

10:22 AM CST on December 06, 2016 (GMT -0600)
Tinker Air Force Base

Weather History for KTIK - December, 2012

Change the Weather History Date:

Monday, December 17, 2012

  Actual Average Record
Temperature  
Mean Temperature 45 °F -  
Max Temperature 57 °F 47 °F 69 °F (2002)
Min Temperature 33 °F 27 °F 14 °F (2000)
Degree Days  
Heating Degree Days 20    
Moisture  
Dew Point 35 °F    
Average Humidity 80    
Maximum Humidity 93    
Minimum Humidity 43    
Precipitation  
Precipitation 0.00 in - - ()
Sea Level Pressure  
Sea Level Pressure 29.82 in    
Wind  
Wind Speed 9 mph (WNW)    
Max Wind Speed 14 mph    
Max Gust Speed -    
Visibility 10 miles    
Events      
Averages and records for this station are not official NWS values.
T = Trace of Precipitation, MM = Missing Value Source: NWS Daily Summary

Daily Weather History Graph

Daily Weather History Graph

Search for Another Location

Airport or City:

Trip Planner

Search our weather history database for the weather conditions in past years. The results will help you decide how hot, cold, wet, or windy it might be!

Date:

Astronomy

Dec. 17, 2012 Rise Set
Actual Time 7:32 AM CST 5:19 PM CST
Civil Twilight 7:04 AM CST 5:47 PM CST
Nautical Twilight 6:32 AM CST 6:19 PM CST
Astronomical Twilight 6:01 AM CST 6:50 PM CST
Moon 10:50 AM CST (12/17) 10:32 PM CST (12/17)
Length of Visible Light 10h 42m
Length of Day
9h 46m
Waxing Crescent, 25% of the Moon is Illuminated
Dec 17
Waxing Crescent
Dec 19
First Quarter
Dec 28
Full
Jan 4
Last Quarter
Jan 11
New

Hourly Weather History & Observations

Time (CST) Temp. Windchill Dew Point Humidity Pressure Visibility Wind Dir Wind Speed Gust Speed Precip Events Conditions
12:12 AM 39.2 °F 33.6 °F 35.6 °F 87% 29.78 in 10.0 mi NW 8.1 mph - N/A   Mostly Cloudy
12:55 AM 40.8 °F 34.5 °F 37.8 °F 89% 29.77 in 10.0 mi NW 10.4 mph - N/A   Overcast
1:20 AM 41.0 °F 34.7 °F 37.4 °F 87% 29.77 in 10.0 mi NNW 10.4 mph - N/A   Scattered Clouds
1:43 AM 39.2 °F 33.6 °F 37.4 °F 93% 29.78 in 10.0 mi NNW 8.1 mph - N/A   Mostly Cloudy
1:55 AM 39.6 °F 34.0 °F 36.3 °F 88% 29.78 in 10.0 mi NNW 8.1 mph - N/A   Mostly Cloudy
2:55 AM 36.9 °F 30.1 °F 34.9 °F 93% 29.80 in 10.0 mi NW 9.2 mph - N/A   Clear
3:39 AM 37.4 °F 30.8 °F 35.6 °F 93% 29.82 in 9.0 mi NW 9.2 mph - N/A   Partly Cloudy
3:55 AM 37.4 °F 30.8 °F 35.4 °F 93% 29.82 in 9.0 mi NW 9.2 mph - N/A   Mostly Cloudy
4:07 AM 37.4 °F 30.8 °F 33.8 °F 87% 29.81 in 9.0 mi NW 9.2 mph - N/A   Partly Cloudy
4:18 AM 35.6 °F 29.2 °F 33.8 °F 93% 29.81 in 9.0 mi NW 8.1 mph - N/A   Clear
4:24 AM 35.6 °F 28.6 °F 33.8 °F 93% 29.81 in 9.0 mi NW 9.2 mph - N/A   Clear
4:55 AM 35.4 °F 29.0 °F 33.4 °F 92% 29.81 in 10.0 mi NW 8.1 mph - N/A   Clear
5:00 AM 35.6 °F 29.9 °F 33.8 °F 93% 29.82 in 9.0 mi NW 6.9 mph - N/A   Clear
5:04 AM 33.8 °F 27.7 °F 32.0 °F 93% 29.82 in 9.0 mi NW 6.9 mph - N/A   Clear
5:55 AM 33.8 °F 29.6 °F 31.8 °F 92% 29.84 in 10.0 mi NW 4.6 mph - N/A   Clear
6:55 AM 34.0 °F 28.8 °F 31.3 °F 90% 29.85 in 10.0 mi WNW 5.8 mph - N/A   Clear
7:55 AM 33.3 °F 28.9 °F 30.9 °F 91% 29.87 in 10.0 mi WNW 4.6 mph - N/A   Clear
8:55 AM 37.0 °F 31.6 °F 33.6 °F 87% 29.88 in 9.0 mi West 6.9 mph - N/A   Clear
9:55 AM 41.7 °F 36.1 °F 34.3 °F 75% 29.89 in 10.0 mi West 9.2 mph - N/A   Clear
10:55 AM 46.4 °F 41.9 °F 34.7 °F 64% 29.90 in 10.0 mi West 9.2 mph - N/A   Clear
11:55 AM 49.6 °F - 36.1 °F 60% 29.88 in 10.0 mi NW 10.4 mph - N/A   Clear
12:55 PM 52.5 °F - 36.1 °F 54% 29.84 in 10.0 mi WNW 4.6 mph - N/A   Clear
1:55 PM 54.9 °F - 37.0 °F 51% 29.80 in 10.0 mi WSW 5.8 mph - N/A   Clear
2:55 PM 56.7 °F - 36.3 °F 47% 29.78 in 10.0 mi WSW 8.1 mph - N/A   Clear
3:55 PM 57.0 °F - 34.9 °F 43% 29.78 in 10.0 mi SW 9.2 mph - N/A   Clear
6:55 PM 45.7 °F 41.0 °F 34.7 °F 65% 29.81 in 10.0 mi South 9.2 mph - N/A   Clear
7:55 PM 44.4 °F 38.6 °F 34.5 °F 68% 29.82 in 10.0 mi SSW 11.5 mph - N/A   Clear
8:55 PM 41.7 °F 35.2 °F 34.2 °F 75% 29.81 in 10.0 mi South 11.5 mph - N/A   Clear
9:55 PM 40.8 °F 33.7 °F 34.0 °F 77% 29.79 in 10.0 mi South 12.7 mph - N/A   Clear
10:55 PM 39.4 °F 32.7 °F 33.8 °F 80% 29.78 in 10.0 mi South 10.4 mph - N/A   Clear
11:55 PM 39.0 °F 31.0 °F 33.8 °F 82% 29.77 in 10.0 mi South 13.8 mph - N/A   Clear